Powrót do katalogu

EXPRESS AT2

AktywnyŁącznośćGEO
NORAD 39613·PAYLOAD·🇷🇺 Russia

Wystrzelony Mar 15, 2014 z Baikonur Cosmodrome

Loading…

TLE

ŚwieżeSource: Space-Track

Epoka: Sep 14, 2026, 14:04 UTC

1 39613U 14010B   26257.58619440  .00000071  00000-0  00000-0 0  9995
2 39613   0.0272 256.6516 0000406 181.6965 182.2630  1.00271067 45399

Śledź EXPRESS AT2 w czasie rzeczywistym z AllMySat

Download on the App Store